{"data":{"norad_id":66768,"epoch":"2026-09-20T03:33:02.745216Z","epoch_age_seconds":44772,"freshness":"FRESH","line1":"1 66768U 25276DG  26263.14794844  .00003755  00000+0  16793-3 0  9993","line2":"2 66768  97.4071 335.4669 0001806 119.0777 241.0640 15.21918432 44883","mean_motion":15.21918432,"eccentricity":0.0001806,"inclination_deg":97.4071,"raan_deg":335.4669,"arg_perigee_deg":119.0777,"mean_anomaly_deg":241.064,"bstar":0.00016793,"rev_number":4488,"period_min":94.617422965806,"perigee_km":498.81219819071,"apogee_km":501.29660092423,"semimajor_km":6878.1913995575,"source":"CELESTRAK","updated_at":"2026-09-20T09:00:34.879390Z"}}